Meteo Giornale » Osservazioni meteo Grecia » Paros Community
ore: 17:20 - Osservazioni Meteo Paros Community
Lat. 37° 0' N Lon. 25° 7' E Alt. 36 metri s.l.m.
30 °C
Sereno
Temp. 24 Ore
24 °C
30 °C
Nord
35.2 Km/h
Dew point 14 °C
Umidità 37 %
Visibilità 10 Km
Il sole sorge alle ore 06:50
Il sole tramonta alle ore 19:48
| Data e Ora | Cielo e Fenomeni | T °C | DP °C | Um. % | Pres. hPa | Vis. km | Vento km/h | |
|---|---|---|---|---|---|---|---|---|
| Oggi h: 17:20 | Sereno | 30 | 14 | 37 | 1012 | 10 | N 35.2 | |
| Oggi h: 16:50 | Sereno | 30 | 15 | 40 | 1012 | 10 | N 35.2 | |
| Oggi h: 16:20 | Sereno | 29 | 17 | 48 | 1012 | 10 | N 35.2 | |
| Oggi h: 15:50 | Sereno | 30 | 15 | 40 | 1012 | 10 | N 38.8 | |
| Oggi h: 15:20 | Sereno | 30 | 17 | 45 | 1012 | 10 | N 35.2 | |
| Oggi h: 14:50 | Sereno | 30 | 18 | 48 | 1012 | 10 | N 33.3 | |
| Oggi h: 14:20 | Sereno | 30 | 17 | 45 | 1012 | 10 | N 37 | |
| Oggi h: 13:50 | Sereno | 29 | 18 | 51 | 1012 | 10 | N 37 | |
| Oggi h: 13:20 | Sereno | 29 | 18 | 51 | 1012 | 10 | N 35.2 | |
| Oggi h: 12:50 | Sereno | 29 | 18 | 51 | 1012 | 10 | N 35.2 | |
| Oggi h: 12:20 | Sereno | 28 | 18 | 54 | 1012 | 10 | N 31.5 | |
| Oggi h: 11:50 | Sereno | 28 | 19 | 58 | 1012 | 10 | N 35.2 | |
| Oggi h: 11:20 | Sereno | 28 | 18 | 54 | 1012 | 10 | N 38.8 | |
| Oggi h: 10:50 | Sereno | 27 | 19 | 61 | 1012 | 10 | N 31.5 | |
| Oggi h: 10:20 | Sereno | 27 | 20 | 65 | 1012 | 10 | N 35.2 | |
| Oggi h: 09:50 | Sereno | 26 | 20 | 69 | 1012 | 10 | N/NO 33.3 | |
| Oggi h: 09:20 | Sereno | 26 | 20 | 69 | 1012 | 10 | N 27.8 | |
| Oggi h: 08:50 | Sereno | 25 | 19 | 69 | 1012 | 10 | N 27.8 | |
| Oggi h: 08:20 | Sereno | 25 | 19 | 69 | 1012 | 10 | N 27.8 | |
| Oggi h: 07:50 | Sereno | 24 | 19 | 73 | 1012 | 10 | N 29.6 | |
| Oggi h: 07:20 | Sereno | 24 | 19 | 73 | 1011 | 10 | N 31.5 | |
| Oggi h: 06:50 | Sereno | 24 | 19 | 73 | 1011 | 10 | N 35.2 | |
| Oggi h: 06:20 | Sereno | 24 | 19 | 73 | 1011 | 10 | N 29.6 | |
| Oggi h: 05:50 | Sereno | 24 | 19 | 73 | 1011 | 10 | N 29.6 | |
| Oggi h: 05:20 | Sereno | 24 | 19 | 73 | 1012 | 10 | N 16.7 | |
| Oggi h: 04:50 | Sereno | 24 | 19 | 73 | 1012 | 10 | N/NE 18.5 | |
| Oggi h: 04:20 | Sereno | 24 | 19 | 73 | 1012 | 10 | N 14.8 | |
| Oggi h: 03:50 | Sereno | 24 | 18 | 69 | 1012 | 10 | N 11.1 | |
| Oggi h: 03:20 | Sereno | 24 | 18 | 69 | 1012 | 10 | N 13 | |
| Oggi h: 02:50 | Sereno | 25 | 18 | 65 | 1012 | 0 | N 18.5 | |
| Oggi h: 02:20 | Sereno | 25 | 18 | 65 | 1012 | 0 | N 18.5 | |
| Oggi h: 01:50 | Sereno | 25 | 18 | 65 | 1013 | 0 | N/NE 18.5 | |
| Oggi h: 01:20 | Sereno | 25 | 17 | 61 | 1013 | 0 | N 16.7 | |
| Oggi h: 00:50 | Sereno | 25 | 17 | 61 | 1013 | 0 | N/NE 16.7 | |
| Oggi h: 00:20 | Sereno | 24 | 17 | 64 | 1013 | 0 | N 3.7 | |
| Ieri h: 23:50 | Sereno | 25 | 18 | 65 | 1013 | 0 | N 11.1 | |
| Ieri h: 23:20 | Sereno | 25 | 18 | 65 | 1013 | 0 | N 13 | |
| Ieri h: 22:50 | Sereno | 25 | 17 | 61 | 1013 | 0 | N 14.8 | |
| Ieri h: 22:20 | Sereno | 25 | 17 | 61 | 1013 | 0 | N/NE 24 | |
| Ieri h: 21:50 | Sereno | 25 | 17 | 61 | 1012 | 0 | N 24 | |
| Ieri h: 21:20 | Sereno | 25 | 16 | 57 | 1012 | 0 | N/NE 25.9 | |
| Ieri h: 20:50 | Sereno | 25 | 16 | 57 | 1012 | 0 | N/NE 24 | |
| Ieri h: 20:20 | Sereno | 25 | 16 | 57 | 1012 | 0 | N 22.2 | |
| Ieri h: 19:50 | Sereno | 26 | 17 | 57 | 1012 | 10 | N 24 | |
| Ieri h: 19:20 | Sereno | 26 | 17 | 57 | 1012 | 10 | N 25.9 | |
| Ieri h: 18:50 | Sereno | 27 | 16 | 50 | 1013 | 10 | N 24 | |
| Ieri h: 18:20 | Sereno | 28 | 15 | 45 | 1013 | 10 | N 25.9 | |
| Ieri h: 17:50 | Sereno | 28 | 15 | 45 | 1013 | 10 | N 22.2 | |



